San Francisco, CA

12:36 PM PDT on June 27, 2017 (GMT -0700)
San Francisco International

Weather History for KSFO - November, 2012

Change the Weather History Date:

Sunday, November 11, 2012

  Actual Average Record
Temperature  
Mean Temperature 52 °F 57 °F  
Max Temperature 60 °F 64 °F 74 °F (1986)
Min Temperature 43 °F 50 °F 38 °F (1946)
Degree Days  
Heating Degree Days 13 8  
Month to date heating degree days 68 79  
Since 1 July heating degree days 459 366  
Cooling Degree Days 0 0  
Month to date cooling degree days 6 0  
Year to date cooling degree days 86 163  
Growing Degree Days 2 (Base 50)    
Moisture  
Dew Point 39 °F    
Average Humidity 62    
Maximum Humidity 83    
Minimum Humidity 40    
Precipitation  
Precipitation 0.00 in 0.07 in 0.99 in (1973)
Month to date precipitation 0.34 0.72  
Year to date precipitation 11.50 14.96  
Since 1 July precipitation 1.04  
Sea Level Pressure  
Sea Level Pressure 30.34 in    
Wind  
Wind Speed 2 mph (WSW)    
Max Wind Speed 12 mph    
Max Gust Speed 13 mph    
Visibility 10 miles    
Events      
T = Trace of Precipitation, MM = Missing Value Source: NWS Daily Summary

Daily Weather History Graph

Daily Weather History Graph

Search for Another Location

Airport or City:

Trip Planner

Search our weather history database for the weather conditions in past years. The results will help you decide how hot, cold, wet, or windy it might be!

Date:

Astronomy

Nov. 11, 2012 Rise Set
Actual Time 6:45 AM PST 5:01 PM PST
Civil Twilight 6:17 AM PST 5:28 PM PST
Nautical Twilight 5:46 AM PST 6:00 PM PST
Astronomical Twilight 5:15 AM PST 6:31 PM PST
Moon 4:08 AM PST (11/11) 3:26 PM PST (11/11)
Length of Visible Light 11h 10m
Length of Day
10h 15m
Waning Crescent, 6% of the Moon is Illuminated
Nov 11
Waning Crescent
Nov 13
New
Nov 20
First Quarter
Nov 28
Full
Dec 6
Last Quarter

Hourly Weather History & Observations

Time (PST) Temp. Windchill Dew Point Humidity Pressure Visibility Wind Dir Wind Speed Gust Speed Precip Events Conditions
12:56 AM 48.0 °F - 37.9 °F 68% 30.27 in 10.0 mi West 3.5 mph - N/A   Clear
1:56 AM 46.0 °F 43.9 °F 37.9 °F 73% 30.27 in 10.0 mi West 4.6 mph - N/A   Clear
2:56 AM 45.0 °F 43.5 °F 37.9 °F 76% 30.28 in 7.0 mi SSW 3.5 mph - N/A   Clear
3:56 AM 45.0 °F - 39.0 °F 80% 30.28 in 10.0 mi Calm Calm - N/A   Clear
4:56 AM 45.0 °F - 37.9 °F 76% 30.30 in 10.0 mi Calm Calm - N/A   Partly Cloudy
5:56 AM 45.0 °F 42.6 °F 39.0 °F 80% 30.31 in 10.0 mi SSW 4.6 mph - N/A   Partly Cloudy
6:56 AM 45.0 °F - 39.0 °F 80% 30.33 in 10.0 mi Calm Calm - N/A   Scattered Clouds
7:56 AM 48.0 °F - 39.9 °F 74% 30.35 in 10.0 mi Calm Calm - N/A   Partly Cloudy
8:56 AM 50.0 °F - 41.0 °F 71% 30.37 in 10.0 mi SE 4.6 mph - N/A   Scattered Clouds
9:56 AM 52.0 °F - 42.1 °F 69% 30.38 in 10.0 mi Calm Calm - N/A   Scattered Clouds
10:56 AM 53.1 °F - 41.0 °F 64% 30.38 in 10.0 mi East 4.6 mph - N/A   Scattered Clouds
11:56 AM 55.0 °F - 41.0 °F 59% 30.37 in 10.0 mi NE 4.6 mph - N/A   Scattered Clouds
12:56 PM 57.0 °F - 41.0 °F 55% 30.35 in 10.0 mi Calm Calm - N/A   Scattered Clouds
1:56 PM 57.9 °F - 39.9 °F 51% 30.34 in 10.0 mi Calm Calm - N/A   Scattered Clouds
2:56 PM 59.0 °F - 37.9 °F 46% 30.33 in 10.0 mi NNE 3.5 mph - N/A   Scattered Clouds
3:56 PM 59.0 °F - 35.1 °F 41% 30.34 in 10.0 mi Calm Calm - N/A   Partly Cloudy
4:56 PM 55.9 °F - 37.9 °F 51% 30.34 in 10.0 mi West 11.5 mph - N/A   Partly Cloudy
5:56 PM 53.1 °F - 39.0 °F 59% 30.35 in 10.0 mi West 6.9 mph - N/A   Partly Cloudy
6:56 PM 53.1 °F - 39.0 °F 59% 30.36 in 10.0 mi Calm Calm - N/A   Partly Cloudy
7:56 PM 53.1 °F - 39.0 °F 59% 30.37 in 10.0 mi SSW 3.5 mph - N/A   Partly Cloudy
8:56 PM 52.0 °F - 39.0 °F 61% 30.38 in 10.0 mi Calm Calm - N/A   Partly Cloudy
9:56 PM 51.8 °F - 39.2 °F 62% 30.38 in 10.0 mi Calm Calm - N/A   Partly Cloudy
10:56 PM 50.0 °F - 39.2 °F 66% 30.38 in 10.0 mi Calm Calm - N/A   Scattered Clouds
11:56 PM 48.9 °F - 37.9 °F 66% 30.38 in 10.0 mi Calm Calm - N/A   Partly Cloudy